MIDAS 3 DEB, 196

Orbit data source: Space-Track

MIDAS 3 DEB, 196 is space debris in LEO originally from a launch on Wed, 12 Jul 1961 UTC launched from the Air Force Western Test Range (AFWTR). Debris objects in space refer to the collection of defunct objects orbiting the Earth. Examples of debris include non-operational satellites, rocket bodies, and fragments generated from explosions, collisions, or faulty payload assembly.

Loading next visibility...
MIDAS 3 DEB details
Identifier
196, 1961-018D
Orbit
LEO
Last TLE update16 hours ago
Origin
Flag of USUSAF SSD (US)
ManufacturerUnknown
MissionSpacecraft
Bus & MotorUnknown
Mass~10 kg wet, ~10 kg dry
Launch date (UTC)
1961-07-12 (63 years ago)
Launch vehicleUnknown
Launch site
Air Force Western Test Range (AFWTR)
Object type
Payload
Rocket body
Debris
Shape & HBRUnknown
Radar Cross SectionMedium (>0.1 m² and <1 m²)

Expand to show TLE details & history

TLE from 16 hours ago
0 MIDAS 3 DEB
1 00196U 61018D   24355.90613158  .00000005  00000-0  14621-2 0  9995
2 00196  91.0953 180.2623 0110344 194.9000 164.8607  8.89684773 60337
Epoch: 2024-12-20T21:44Z
Definitive object data (Epoch: 2024-12-20T21:44:49.768Z)
Latitude-0.00008°
Longitude124.09001°
Altitude3,567.077 km
Speed6.298 km/s
True Right ascension12h 01m 02s
True Declination0° 00' 00"
Sunlit
Object was in daylight at TLE epoch
Visualization TLE readout
Latitude-88.07322°
Longitude158.59156°
Altitude3,463.985 km
Speed6.374 km/s
Apparent Right ascension00h 09m 43s
Apparent Declination-71° 36' 53"
Sunlit
Object is in daylight
Visualization observer readout
Local Sidereal Time12:18:01
Azimuth178.755° S
Elevation-58.284°
Doppler factor1
Orbital elements
Apogee altitude3,566.262 km
Perigee altitude3,349.197 km
Semi-major axis9,835.866 km
Eccentricity0.0110344
Inclination91.0953°
RAAN180.2623°
Arg. of periapsis194.9°
True anomaly165.18659°
Mean anomaly164.8607°
Eccentric anomaly165.02408°
Mean motion2.22497 °/min
BSTAR0.0014621
Orbital period161.8 mins
Loading maneuver chart data...
Loading historical data...
Loading historical data...
Loading historical data...
Loading historical data...
Loading historical data...
Loading historical data...
Loading historical data...

MIDAS 3 DEB Visibility forecast

Observer location: undefined°, undefined

Span
Click to sort rows by Start time (UTC) header in descending order
Start Az.
Max El. time (UTC)
Max El. Az.
Max El.
End time (UTC)
End Az.
35 mins2024-12-21 13:57:05.134Z202.784° SW2024-12-21 14:14:05.134Z272.039° WNW37.833°2024-12-21 14:32:05.134Z351.234° N
30 mins2024-12-21 22:50:05.134Z14.515° NNE2024-12-21 23:05:05.134Z77.601° E30.524°2024-12-21 23:20:05.134Z139.627° SSE
32 mins2024-12-22 01:31:05.134Z358.513° N2024-12-22 01:47:05.134Z279.683° WNW42.292°2024-12-22 02:03:05.134Z207.001° SW
13 mins2024-12-22 04:16:05.134Z336.024° NNW2024-12-22 04:22:05.134Z314.033° NW14.584°2024-12-22 04:29:05.134Z288.501° WNW
11 mins2024-12-22 09:11:05.134Z61.453° ENE2024-12-22 09:16:05.134Z44.169° NE12.835°2024-12-22 09:22:05.134Z23.312° NE
33 mins2024-12-22 11:35:05.134Z145.583° SSE2024-12-22 11:51:05.134Z72.237° E40.615°2024-12-22 12:08:05.134Z1.622° NNE
|